FW8418 Weather Reports


time (UTC)temp
C
wind
direction
speed
KPH
gust
KPH
rain 1hr
cm
rain 24hr
cm
rain mn
cm
humidity
%
barometer
mb
20260509000047 16 261 3.2 12.9 0.00 0.00 0.00 41 1006.8
20260508234544 16 246 1.6 20.9 0.00 0.00 0.00 42 1006.7
20260508233045 17 202 6.4 16.1 0.00 0.00 0.00 40 1006.7
20260508231555 16 257 4.8 17.7 0.00 0.00 0.00 39 1006.6
20260508230047 17 302 6.4 19.3 0.00 0.00 0.00 40 1006.6
20260508224605 17 301 3.2 17.7 0.00 0.00 0.00 39 1006.6
20260508223044 17 231 6.4 17.7 0.00 0.00 0.00 38 1006.7
20260508221556 17 278 4.8 22.5 0.00 0.00 0.00 37 1006.7
20260508220053 17 301 8.0 20.9 0.00 0.00 0.00 39 1006.8
20260508214550 17 249 6.4 19.3 0.00 0.00 0.00 39 1006.9
20260508213053 17 245 3.2 16.1 0.00 0.00 0.00 43 1007.0
20260508211555 17 242 3.2 12.9 0.00 0.00 0.00 44 1007.2
20260508210052 17 253 4.8 19.3 0.00 0.00 0.00 40 1007.2
20260508204547 17 342 11.3 20.9 0.00 0.00 0.00 40 1007.3
20260508203048 16 251 4.8 17.7 0.00 0.00 0.00 39 1007.6
20260508201548 17 320 4.8 24.1 0.00 0.00 0.00 38 1007.7
20260508200053 17 179 6.4 24.1 0.00 0.00 0.00 41 1007.9
20260508194548 17 264 6.4 29.0 0.00 0.00 0.00 39 1008.3
20260508193058 17 316 11.3 29.0 0.00 0.00 0.00 38 1008.5
20260508191547 16 273 8.0 20.9 0.00 0.00 0.00 40 1008.7
20260508190046 16 256 8.0 25.7 0.00 0.00 0.00 40 1008.9
20260508184546 17 271 9.7 20.9 0.00 0.00 0.00 38 1009.2
20260508183116 16 273 4.8 19.3 0.00 0.00 0.00 41 1009.4
20260508181610 16 0 9.7 16.1 0.00 0.00 0.00 41 1009.4
20260508180054 16 212 1.6 14.5 0.00 0.00 0.00 44 1009.5
20260508174550 15 0 1.6 22.5 0.00 0.00 0.00 42 1009.7
20260508173056 15 163 3.2 24.1 0.00 0.00 0.00 43 1009.9
20260508171551 15 302 4.8 22.5 0.00 0.00 0.00 42 1010.3
20260508170053 15 325 8.0 19.3 0.00 0.00 0.00 41 1010.5
20260508164545 15 303 6.4 19.3 0.00 0.00 0.00 44 1010.8
20260508163050 15 288 6.4 17.7 0.00 0.00 0.00 40 1011.0
20260508161553 14 201 8.0 22.5 0.00 0.00 0.00 39 1011.0
20260508160054 13 296 4.8 17.7 0.00 0.00 0.00 47 1011.2
20260508154552 13 252 4.8 22.5 0.00 0.00 0.00 49 1011.5
20260508153051 13 249 3.2 11.3 0.00 0.00 0.00 52 1011.4
20260508151547 12 48 0.0 14.5 0.00 0.00 0.00 55 1011.5
20260508150119 12 333 6.4 14.5 0.00 0.00 0.00 53 1011.7
20260508144600 11 254 0.0 9.7 0.00 0.00 0.00 56 1011.7
20260508143050 11 342 3.2 4.8 0.00 0.00 0.00 59 1011.8
20260508141559 11 5 3.2 9.7 0.00 0.00 0.00 59 1012.0
20260508140057 11 326 0.0 6.4 0.00 0.00 0.00 67 1012.0
20260508134544 10 0 0.0 9.7 0.00 0.00 0.00 70 1012.1
20260508133045 10 0 0.0 6.4 0.00 0.00 0.00 71 1012.2
20260508131556 9 0 0.0 1.6 0.00 0.00 0.00 75 1012.2
20260508130047 8 0 0.0 4.8 0.00 0.00 0.00 78 1012.2
20260508124542 8 250 0.0 3.2 0.00 0.00 0.00 81 1012.3
20260508123043 7 0 0.0 3.2 0.00 0.00 0.00 85 1012.1
20260508121550 6 0 0.0 4.8 0.00 0.00 0.00 88 1011.8
20260508120049 6 0 0.0 1.6 0.00 0.00 0.00 89 1011.8
20260508114548 6 0 0.0 0.0 0.00 0.00 0.00 90 1011.7
20260508113110 5 0 0.0 0.0 0.00 0.00 0.00 91 1011.5
20260508111546 4 0 0.0 0.0 0.00 0.00 0.00 91 1011.3
20260508110053 3 0 0.0 0.0 0.00 0.00 0.00 90 1011.0
20260508104555 3 0 0.0 0.0 0.00 0.00 0.00 89 1011.1
20260508103045 3 0 0.0 3.2 0.00 0.00 0.00 89 1010.9
20260508101548 3 0 0.0 0.0 0.00 0.00 0.00 88 1011.0
20260508100043 4 0 0.0 0.0 0.00 0.00 0.00 87 1010.9
20260508094543 5 0 0.0 0.0 0.00 0.00 0.00 87 1011.0
20260508093052 5 0 0.0 0.0 0.00 0.00 0.00 86 1011.0
20260508091548 5 0 0.0 0.0 0.00 0.00 0.00 85 1011.0
20260508090050 5 0 0.0 6.4 0.00 0.00 0.00 84 1011.1
20260508084543 6 250 0.0 8.0 0.00 0.00 0.00 84 1010.9
20260508083043 6 0 0.0 1.6 0.00 0.00 0.00 83 1011.1
20260508081544 6 0 1.6 9.7 0.00 0.00 0.00 82 1011.2
20260508080049 6 272 1.6 11.3 0.00 0.00 0.00 82 1011.3
20260508074550 6 232 3.2 11.3 0.00 0.00 0.00 81 1011.2
20260508073059 6 198 3.2 8.0 0.00 0.00 0.00 80 1011.3
20260508071545 7 238 3.2 12.9 0.00 0.00 0.00 80 1011.6
20260508070049 7 264 3.2 8.0 0.00 0.00 0.00 79 1011.7
20260508064602 7 0 0.0 9.7 0.00 0.00 0.00 79 1011.7
20260508063048 7 0 3.2 9.7 0.00 0.00 0.00 78 1011.6
20260508061554 7 248 3.2 14.5 0.00 0.00 0.00 78 1011.7
20260508060050 7 227 0.0 9.7 0.00 0.00 0.00 78 1011.7
20260508054605 7 245 3.2 9.7 0.00 0.00 0.00 78 1011.7
20260508053050 6 0 1.6 8.0 0.00 0.00 0.00 79 1011.8
20260508051547 6 213 1.6 8.0 0.00 0.00 0.00 78 1011.7
20260508050100 6 206 1.6 8.0 0.00 0.00 0.00 78 1011.8
20260508044544 6 216 1.6 6.4 0.00 0.00 0.00 76 1011.8
20260508043050 7 202 0.0 4.8 0.00 0.00 0.00 75 1011.7
20260508041544 7 212 1.6 8.0 0.00 0.00 0.00 74 1011.7
20260508040057 7 202 1.6 6.4 0.00 0.00 0.00 72 1011.7
20260508034547 7 193 1.6 8.0 0.00 0.00 0.00 70 1011.6
20260508033045 8 182 3.2 8.0 0.00 0.00 0.00 69 1011.7
20260508031552 8 190 1.6 8.0 0.00 0.00 0.00 68 1011.7
20260508030046 8 205 0.0 4.8 0.00 0.00 0.00 67 1011.9
20260508024548 8 200 1.6 8.0 0.00 0.00 0.00 66 1012.1
20260508023046 8 0 1.6 8.0 0.00 0.00 0.00 63 1012.0
20260508021544 9 0 0.0 1.6 0.00 0.00 0.00 62 1011.8
20260508020042 9 0 0.0 6.4 0.00 0.00 0.00 62 1011.8
20260508014545 9 263 3.2 11.3 0.00 0.00 0.00 60 1011.8
20260508013046 10 297 9.7 22.5 0.00 0.00 0.00 60 1011.8
20260508011550 10 214 3.2 17.7 0.00 0.00 0.00 55 1011.7
20260508010046 10 209 0.0 6.4 0.00 0.00 0.00 52 1011.5
20260508004546 10 271 1.6 11.3 0.00 0.00 0.00 50 1011.3
20260508003044 10 0 0.0 0.0 0.00 0.00 0.00 50 1011.3
20260508001547 10 0 0.0 0.0 0.00 0.00 0.00 51 1011.2